CW0069 Weather Reports


Display with metric or nautical units.
time (UTC)temp
F
wind
direction
speed
MPH
gust
MPH
rain 1hr
in
rain 24hr
in
rain mn
in
humidity
%
barometer
mb
20260505195404 85 169 13.0 20.0 0.00 0.00 0.00 51 1002.8
20260505194904 85 170 10.0 18.0 0.00 0.00 0.00 50 1002.7
20260505194405 84 169 11.0 21.0 0.00 0.00 0.00 50 1002.9
20260505193903 84 169 8.0 20.0 0.00 0.00 0.00 51 1002.8
20260505193404 84 164 13.0 22.0 0.00 0.00 0.00 50 1002.9
20260505192904 84 180 10.0 20.0 0.00 0.00 0.00 50 1002.9
20260505191907 83 149 13.0 18.0 0.00 0.00 0.00 52 1002.9
20260505191404 83 151 10.0 20.0 0.00 0.00 0.00 51 1002.8
20260505190404 83 168 11.0 20.0 0.00 0.00 0.00 50 1003.2
20260505185904 83 181 12.0 20.0 0.00 0.00 0.00 51 1003.1
20260505185404 82 166 12.0 17.0 0.00 0.00 0.00 51 1003.2
20260505184904 82 157 12.0 18.0 0.00 0.00 0.00 52 1003.2
20260505184404 82 186 10.0 21.0 0.00 0.00 0.00 51 1003.3
20260505183904 82 150 12.0 20.0 0.00 0.00 0.00 51 1003.2
20260505182404 82 173 12.0 21.0 0.00 0.00 0.00 51 1003.4
20260505181904 82 157 10.0 18.0 0.00 0.00 0.00 52 1003.5
20260505181404 82 169 13.0 18.0 0.00 0.00 0.00 52 1003.4
20260505180904 82 182 11.0 20.0 0.00 0.00 0.00 52 1003.3
20260505180404 82 193 12.0 21.0 0.00 0.00 0.00 51 1003.4
20260505175904 82 186 12.0 21.0 0.00 0.00 0.00 52 1003.5
20260505174905 82 176 14.0 20.0 0.00 0.00 0.00 52 1003.5
20260505173404 81 166 14.0 21.0 0.00 0.00 0.00 52 1003.4
20260505172904 81 174 13.0 22.0 0.00 0.00 0.00 52 1003.5
20260505172404 81 169 14.0 20.0 0.00 0.00 0.00 52 1003.4
20260505171904 81 178 12.0 22.0 0.00 0.00 0.00 51 1003.5
20260505171404 81 163 15.0 25.0 0.00 0.00 0.00 52 1003.5
20260505170404 80 187 11.0 23.0 0.00 0.00 0.00 53 1003.6
20260505165903 80 159 13.0 22.0 0.00 0.00 0.00 52 1003.5
20260505165405 80 178 12.0 18.0 0.00 0.00 0.00 53 1003.5
20260505164904 80 178 11.0 20.0 0.00 0.00 0.00 53 1003.7
20260505164404 80 179 14.0 26.0 0.00 0.00 0.00 52 1003.7
20260505162904 79 186 14.0 21.0 0.00 0.00 0.00 53 1003.5
20260505162404 79 179 15.0 22.0 0.00 0.00 0.00 53 1003.4
20260505161403 78 165 14.0 23.0 0.00 0.00 0.00 54 1003.4
20260505160904 78 179 10.0 25.0 0.00 0.00 0.00 55 1003.3
20260505160404 77 175 13.0 21.0 0.00 0.00 0.00 55 1003.4
20260505152904 76 167 14.0 22.0 0.00 0.00 0.00 57 1003.6
20260505152403 76 178 12.0 25.0 0.00 0.00 0.00 57 1003.6
20260505151904 76 184 10.0 23.0 0.00 0.00 0.00 57 1003.6
20260505150904 75 174 10.0 17.0 0.00 0.00 0.00 57 1003.5
20260505150403 75 183 14.0 21.0 0.00 0.00 0.00 57 1003.4
20260505140403 73 164 10.0 20.0 0.00 0.00 0.00 60 1003.4
20260505124904 72 156 10.0 18.0 0.00 0.00 0.00 61 1003.2
20260505124404 72 155 9.0 20.0 0.00 0.00 0.00 61 1003.1
20260505123905 72 143 9.0 16.0 0.00 0.00 0.00 61 1003.0
20260505123404 72 163 10.0 16.0 0.00 0.00 0.00 61 1002.9
20260505121904 71 164 10.0 20.0 0.00 0.00 0.00 61 1002.8
20260505121404 71 165 11.0 20.0 0.00 0.00 0.00 61 1002.8
20260505120904 71 162 9.0 20.0 0.00 0.00 0.00 61 1002.8
20260505120403 71 169 10.0 16.0 0.00 0.00 0.00 61 1002.6
20260505115904 71 163 10.0 17.0 0.00 0.00 0.00 61 1002.5
20260505115404 71 157 11.0 21.0 0.00 0.00 0.00 61 1002.6
20260505114904 71 146 10.0 20.0 0.00 0.00 0.00 61 1002.5
20260505114405 71 153 11.0 16.0 0.00 0.00 0.00 61 1002.6
20260505113904 71 178 9.0 22.0 0.00 0.00 0.00 61 1002.6
20260505113404 71 175 12.0 20.0 0.00 0.00 0.00 61 1002.5
20260505112904 71 180 12.0 18.0 0.00 0.00 0.00 61 1002.5
20260505111903 71 170 11.0 18.0 0.00 0.00 0.00 61 1002.6
20260505111403 71 169 12.0 17.0 0.00 0.00 0.00 61 1002.6
20260505110904 71 173 10.0 17.0 0.00 0.00 0.00 61 1002.6
20260505110404 71 158 12.0 20.0 0.00 0.00 0.00 61 1002.6
20260505101904 71 155 9.0 17.0 0.00 0.00 0.00 61 1002.6
20260505100403 71 163 10.0 20.0 0.00 0.00 0.00 61 1002.8
20260505095903 71 156 10.0 23.0 0.00 0.00 0.00 61 1002.8
20260505095403 71 151 12.0 20.0 0.00 0.00 0.00 61 1002.9
20260505094904 71 159 11.0 16.0 0.00 0.00 0.00 61 1003.0
20260505094405 71 157 9.0 17.0 0.00 0.00 0.00 61 1003.0
20260505093403 71 168 10.0 24.0 0.00 0.00 0.00 61 1003.0
20260505092904 71 164 10.0 20.0 0.00 0.00 0.00 61 1002.9
20260505092404 71 158 9.0 20.0 0.00 0.00 0.00 61 1003.0
20260505091908 71 159 12.0 20.0 0.00 0.00 0.00 61 1002.9
20260505091404 71 166 11.0 23.0 0.00 0.00 0.00 61 1003.0
20260505090904 71 165 11.0 20.0 0.00 0.00 0.00 61 1002.9
20260505090404 71 162 14.0 22.0 0.00 0.00 0.00 61 1003.0
20260505085904 71 172 13.0 20.0 0.00 0.00 0.00 61 1002.9
20260505085403 71 177 12.0 24.0 0.00 0.00 0.00 61 1002.9
20260505084404 71 146 12.0 18.0 0.00 0.00 0.00 61 1002.8
20260505083904 71 147 12.0 20.0 0.00 0.00 0.00 61 1003.0
20260505083404 71 164 12.0 20.0 0.00 0.00 0.00 61 1003.0
20260505082904 71 155 12.0 22.0 0.00 0.00 0.00 61 1003.1
20260505082403 71 153 10.0 21.0 0.00 0.00 0.00 61 1003.0
20260505081404 71 159 10.0 16.0 0.00 0.00 0.00 61 1003.1
20260505080904 71 156 12.0 18.0 0.00 0.00 0.00 60 1003.1
20260505080404 71 170 13.0 20.0 0.00 0.00 0.00 60 1003.2
20260505075404 71 156 10.0 17.0 0.00 0.00 0.00 60 1003.4
20260505074904 71 157 11.0 16.0 0.00 0.00 0.00 60 1003.5
20260505074403 71 166 10.0 18.0 0.00 0.00 0.00 60 1003.5
20260505073904 71 163 12.0 24.0 0.00 0.00 0.00 60 1003.6
20260505072904 71 150 11.0 21.0 0.00 0.00 0.00 60 1003.8
20260505072403 71 159 10.0 18.0 0.00 0.00 0.00 60 1003.9
20260505071904 71 152 11.0 18.0 0.00 0.00 0.00 60 1003.9
20260505071404 71 154 10.0 21.0 0.00 0.00 0.00 60 1003.9
20260505070404 71 159 12.0 20.0 0.00 0.00 0.00 60 1004.0
20260505065904 71 163 11.0 20.0 0.00 0.00 0.00 60 1004.1
20260505065403 71 151 11.0 20.0 0.00 0.00 0.00 60 1004.1
20260505064904 71 174 10.0 18.0 0.00 0.00 0.00 60 1004.2
20260505064404 71 157 10.0 21.0 0.00 0.00 0.00 60 1004.2
20260505063904 71 161 11.0 18.0 0.00 0.00 0.00 59 1004.2
20260505063404 71 170 10.0 24.0 0.00 0.00 0.00 59 1004.2
20260505062904 71 152 10.0 20.0 0.00 0.00 0.00 59 1004.2
20260505062403 71 156 11.0 18.0 0.00 0.00 0.00 59 1004.3
20260505061904 71 153 10.0 18.0 0.00 0.00 0.00 59 1004.4
20260505061404 72 148 13.0 20.0 0.00 0.00 0.00 59 1004.4
20260505060904 72 156 10.0 17.0 0.00 0.00 0.00 59 1004.4
20260505060404 72 164 11.0 18.0 0.00 0.00 0.00 58 1004.5
20260505055904 72 161 10.0 18.0 0.00 0.00 0.00 58 1004.4
20260505055403 72 148 12.0 17.0 0.00 0.00 0.00 58 1004.4
20260505054903 72 160 9.0 20.0 0.00 0.00 0.00 58 1004.5
20260505053903 72 152 13.0 21.0 0.00 0.00 0.00 57 1004.5
20260505052904 72 147 10.0 17.0 0.00 0.00 0.00 57 1004.6
20260505052404 72 164 10.0 20.0 0.00 0.00 0.00 57 1004.7
20260505051904 72 160 9.0 18.0 0.00 0.00 0.00 57 1004.9
20260505051404 72 160 9.0 18.0 0.00 0.00 0.00 57 1004.8
20260505050403 73 152 10.0 16.0 0.00 0.00 0.00 56 1004.8
20260505041404 73 146 9.0 17.0 0.00 0.00 0.00 55 1005.1
20260505040405 73 153 7.0 15.0 0.00 0.00 0.00 55 1005.1
20260505035904 73 132 9.0 16.0 0.00 0.00 0.00 54 1005.1
20260505035405 73 153 7.0 14.0 0.00 0.00 0.00 54 1005.0
20260505034905 74 149 8.0 15.0 0.00 0.00 0.00 54 1004.8
20260505034404 74 144 9.0 20.0 0.00 0.00 0.00 54 1004.8
20260505033405 74 149 10.0 17.0 0.00 0.00 0.00 54 1005.0
20260505032905 74 147 8.0 15.0 0.00 0.00 0.00 54 1004.9
20260505031904 74 145 9.0 14.0 0.00 0.00 0.00 53 1005.0
20260505031405 74 155 9.0 20.0 0.00 0.00 0.00 53 1005.1
20260505030405 74 156 9.0 21.0 0.00 0.00 0.00 53 1005.1
20260505025904 74 149 8.0 15.0 0.00 0.00 0.00 53 1005.2
20260505025405 74 157 7.0 16.0 0.00 0.00 0.00 53 1005.1
20260505024905 74 142 6.0 15.0 0.00 0.00 0.00 53 1005.0
20260505024405 74 151 6.0 14.0 0.00 0.00 0.00 53 1005.0
20260505023905 74 138 9.0 14.0 0.00 0.00 0.00 52 1004.8
20260505023405 74 149 6.0 17.0 0.00 0.00 0.00 52 1004.5
20260505022404 75 153 7.0 12.0 0.00 0.00 0.00 52 1004.8
20260505021905 75 148 7.0 14.0 0.00 0.00 0.00 52 1004.7
20260505021405 75 148 7.0 15.0 0.00 0.00 0.00 52 1004.7
20260505020904 75 139 7.0 13.0 0.00 0.00 0.00 52 1004.6
20260505020405 75 146 7.0 12.0 0.00 0.00 0.00 52 1004.7
20260505015904 75 144 8.0 15.0 0.00 0.00 0.00 52 1004.6
20260505015405 75 160 6.0 14.0 0.00 0.00 0.00 52 1004.7
20260505013904 75 151 8.0 15.0 0.00 0.00 0.00 51 1004.6
20260505013405 76 147 8.0 15.0 0.00 0.00 0.00 51 1004.6
20260505012905 76 148 8.0 14.0 0.00 0.00 0.00 51 1004.7
20260505011905 76 154 7.0 16.0 0.00 0.00 0.00 51 1004.7
20260505011405 76 154 10.0 14.0 0.00 0.00 0.00 51 1004.7
20260505010905 76 158 7.0 14.0 0.00 0.00 0.00 50 1004.7
20260505010405 77 153 10.0 18.0 0.00 0.00 0.00 50 1004.6
20260505005908 77 150 8.0 16.0 0.00 0.00 0.00 50 1004.7
20260505005405 77 150 7.0 20.0 0.00 0.00 0.00 50 1004.6
20260505004905 77 172 9.0 15.0 0.00 0.00 0.00 50 1004.6
20260505004405 77 152 9.0 17.0 0.00 0.00 0.00 50 1004.8
20260505003904 77 153 12.0 20.0 0.00 0.00 0.00 49 1004.6
20260505003405 78 157 12.0 20.0 0.00 0.00 0.00 49 1004.5
20260505002405 78 154 10.0 16.0 0.00 0.00 0.00 49 1004.9
20260505001905 78 158 11.0 18.0 0.00 0.00 0.00 49 1004.9
20260505000904 78 160 12.0 18.0 0.00 0.00 0.00 48 1004.8
20260504235904 79 165 13.0 23.0 0.00 0.00 0.00 48 1004.9
20260504235404 79 178 12.0 20.0 0.00 0.00 0.00 47 1005.0
20260504234905 79 168 9.0 18.0 0.00 0.00 0.00 47 1005.0
20260504234405 79 164 12.0 21.0 0.00 0.00 0.00 47 1005.0
20260504233905 79 147 10.0 20.0 0.00 0.00 0.00 48 1005.0
20260504233404 79 164 14.0 22.0 0.00 0.00 0.00 47 1005.0
20260504232905 80 170 13.0 22.0 0.00 0.00 0.00 47 1004.9
20260504231905 80 155 10.0 18.0 0.00 0.00 0.00 47 1005.2
20260504231404 80 165 11.0 26.0 0.00 0.00 0.00 46 1005.2
20260504230905 80 166 13.0 25.0 0.00 0.00 0.00 45 1005.1
20260504225905 80 145 14.0 24.0 0.00 0.00 0.00 45 1005.4
20260504224904 81 182 14.0 26.0 0.00 0.00 0.00 45 1005.4
20260504223404 81 175 13.0 24.0 0.00 0.00 0.00 46 1005.3
20260504222904 81 148 14.0 29.0 0.00 0.00 0.00 45 1005.4
20260504221905 81 148 13.0 20.0 0.00 0.00 0.00 45 1005.5
20260504221406 81 168 13.0 22.0 0.00 0.00 0.00 45 1005.6
20260504220905 81 155 15.0 24.0 0.00 0.00 0.00 45 1005.7
20260504220404 81 169 12.0 22.0 0.00 0.00 0.00 45 1005.8
20260504215904 81 172 15.0 22.0 0.00 0.00 0.00 45 1005.8
20260504215404 81 176 14.0 28.0 0.00 0.00 0.00 44 1005.7
20260504214405 81 154 12.0 20.0 0.00 0.00 0.00 43 1006.0
20260504213905 82 159 16.0 24.0 0.00 0.00 0.00 43 1006.2
20260504213404 82 145 13.0 22.0 0.00 0.00 0.00 44 1006.2
20260504212405 82 184 12.0 24.0 0.00 0.00 0.00 42 1006.2
20260504211904 82 173 13.0 26.0 0.00 0.00 0.00 43 1006.4
20260504210905 81 166 11.0 17.0 0.00 0.00 0.00 44 1006.6
20260504210405 81 154 14.0 23.0 0.00 0.00 0.00 44 1006.7
20260504205905 81 145 12.0 20.0 0.00 0.00 0.00 43 1006.9
20260504205405 81 166 12.0 21.0 0.00 0.00 0.00 43 1006.8
20260504204908 81 146 13.0 20.0 0.00 0.00 0.00 42 1006.9
20260504204405 81 168 15.0 24.0 0.00 0.00 0.00 43 1007.0
20260504203905 81 141 14.0 24.0 0.00 0.00 0.00 42 1007.1
20260504202904 81 140 16.0 25.0 0.00 0.00 0.00 41 1007.4
20260504202404 81 153 13.0 25.0 0.00 0.00 0.00 41 1007.6
20260504201905 81 175 16.0 24.0 0.00 0.00 0.00 41 1007.7
20260504201405 81 156 14.0 21.0 0.00 0.00 0.00 40 1007.8
20260504200905 81 158 10.0 26.0 0.00 0.00 0.00 41 1008.0